Home > Time Zones > World Clock > Weather > India > Surat > Past weeks

Flag for India Weather past 2 weeks in Surat, Gujarat, India

Now
91 °F

Haze.


Feels Like: 103 °F
Forecast: 84 / 94 °F
Wind: 9 mph from West

Location: Ahmadabad Airport

Current Time: Jun 3, 2015 at 1:03:28 AM

Latest Report: Jun 3, 2015 at 12:10 AM


Visibility: 2 mi

Pressure: 29.68 "Hg

Humidity: 59%

Dew point: 75 °F

Location of SuratLocation

Historic Weather in Surat — Graph

°F

Surat temperature yesterday

Maximum temperature yesterday: 104 °F (at 3:40 PM)
Minimum temperature yesterday: 84 °F (at 4:40 AM)
Average temperature yesterday: 92 °F

Past Weeks' High & Low Weather Summary

 TemperatureHumidityPressure
High115 °F (May 19, 3:40 PM)100% (May 26, 1:10 PM)29.77 "Hg (May 26, 1:10 PM)
Low50 °F (May 26, 1:10 PM)12% (May 22, 5:10 PM)29.47 "Hg (Jun 1, 4:40 PM)
Average97 °F48%29.66 "Hg
* Reported May 19 12:10 AM — Jun 2 11:40 PM, Surat, Weather by CustomWeather, © 2015

Note: Actual official high and low records may vary slightly from our data, if they occured in-between our weather recording intervals... More about our weather records

Advertising

Surat weather history for previous 24 hours

 ConditionsComfort  
Time TempWeatherWind HumidityBarometerVisibility
11:40 PM
Tue, Jun 2
91 °FHaze.9 mph59%29.65 "Hg2 mi
11:10 PM90 °FHaze.9 mph67%29.65 "Hg2 mi
10:40 PM90 °FHaze.10 mph67%29.65 "Hg2 mi
10:10 PM90 °FHaze.12 mph67%29.62 "Hg2 mi
9:10 PM91 °FHaze.13 mph63%29.59 "Hg2 mi
8:40 PM93 °FPassing clouds.12 mph56%29.59 "Hg2 mi
7:40 PM95 °FScattered clouds.9 mph56%29.59 "Hg2 mi
6:10 PM102 °FClear.10 mph40%29.56 "Hg4 mi
5:40 PM102 °FClear.10 mph40%29.56 "Hg4 mi
5:10 PM104 °FPassing clouds.12 mph38%29.56 "Hg4 mi
4:40 PM104 °FPassing clouds.9 mph38%29.56 "Hg4 mi
4:10 PM104 °FScattered clouds.10 mph38%29.59 "Hg4 mi
3:40 PM104 °FPartly sunny.7 mph35%29.59 "Hg4 mi
12:40 PM99 °FPartly sunny.6 mph44%29.68 "Hg4 mi
12:10 PM97 °FPartly sunny.8 mph47%29.71 "Hg3 mi
11:40 AM97 °FPartly sunny.9 mph47%29.71 "Hg3 mi
11:10 AM95 °FPartly sunny.7 mph50%29.71 "Hg3 mi
9:40 AM91 °FScattered clouds.6 mph56%29.71 "Hg2 mi
8:40 AM88 °FScattered clouds.6 mph66%29.74 "Hg2 mi
8:10 AM86 °FHaze.7 mph66%29.71 "Hg2 mi
7:40 AM86 °FHaze.6 mph66%29.71 "Hg2 mi
7:10 AM86 °FHaze.6 mph66%29.71 "Hg2 mi
6:10 AM84 °FPassing clouds.5 mph70%29.68 "Hg2 mi
5:10 AM84 °FHaze.7 mph70%29.68 "Hg2 mi
4:40 AM84 °FHaze.10 mph70%29.65 "Hg2 mi
4:10 AM86 °FHaze.8 mph66%29.65 "Hg2 mi
3:40 AM86 °FHaze.9 mph66%29.62 "Hg2 mi
3:10 AM86 °FHaze.10 mph66%29.62 "Hg2 mi
2:40 AM86 °FHaze.6 mph62%29.62 "Hg2 mi
1:40 AM88 °FHaze.9 mph66%29.65 "Hg2 mi
1:10 AM90 °FHaze.8 mph63%29.65 "Hg2 mi
Weather by CustomWeather, © 2015

See weather overviewHow to use our weather pages